Change the Weather History Date:

Monday, January 28, 2013

  Actual Average Record
Temperature  
Mean Temperature 70 °F -  
Max Temperature 82 °F 78 °F 82 °F (2006)
Min Temperature 58 °F 60 °F 57 °F (2012)
Cooling Degree Days 5    
Growing Degree Days 20 (Base 50)    
Moisture  
Dew Point 58 °F    
Average Humidity 67    
Maximum Humidity 100    
Minimum Humidity 35    
Precipitation  
Precipitation 0.00 in 0.19 in - ()
Sea Level Pressure  
Sea Level Pressure 30.19 in    
Wind  
Wind Speed 5 mph ()    
Max Wind Speed 13 mph    
Max Gust Speed -    
Visibility 9.4 miles    
Events      
Averages and records for this station are not official NWS values.
T = Trace of Precipitation, MM = Missing Value Source: Averaged Metar Reports

Daily Weather History Graph

Daily Weather History Graph

Search for Another Location

Airport or City:

Trip Planner

Search our weather history database for the weather conditions in past years. The results will help you decide how hot, cold, wet, or windy it might be!

Date:

Astronomy

Jan. 28, 2013 Rise Set
Actual Time 5:40 AM CAT 6:36 PM CAT
Civil Twilight 5:17 AM CAT 6:59 PM CAT
Nautical Twilight 4:49 AM CAT 7:26 PM CAT
Astronomical Twilight 4:21 AM CAT 7:54 PM CAT
Moon 7:22 PM CAT (1/28) 6:34 AM CAT (1/28)
Length of Visible Light 13h 42m
Length of Day
12h 56m
Full, 98% of the Moon is Illuminated
Jan 28
Full
Feb 3
Last Quarter
Feb 10
New
Feb 17
First Quarter
Feb 25
Full

Hourly Weather History & Observations

Time (CAT) Temp. Heat Index Dew Point Humidity Pressure Visibility Wind Dir Wind Speed Gust Speed Precip Events Conditions
1:00 AM 60.8 °F - 57.2 °F 88% 30.18 in - SE 3.5 mph - N/A   Clear
2:00 AM 62 °F - 58 °F 82%  in 19 mi East 3.5 mph - -   Clear
2:00 AM 60.8 °F - 57.2 °F 88% 30.18 in - East 3.5 mph - N/A   Clear
3:00 AM 60.8 °F - 59.0 °F 94% 30.15 in - Calm Calm - N/A   Clear
5:00 AM 59.0 °F - 59.0 °F 100% 30.18 in - SSE 3.5 mph - N/A   Clear
6:00 AM 59.0 °F - 57.2 °F 94% 30.21 in - ENE 1.2 mph - N/A   Clear
7:00 AM 66.2 °F - 60.8 °F 83% 30.21 in - Calm Calm - N/A   Clear
8:00 AM 68 °F - 61 °F 72%  in 19 mi SSE 5.8 mph - -   Scattered Clouds
8:00 AM 68.0 °F - 60.8 °F 78% 30.24 in 6.2 mi SSE 5.8 mph - N/A   Mostly Cloudy
9:00 AM 73.4 °F - 60.8 °F 65% 30.24 in 6.2 mi SSE 8.1 mph - N/A   Scattered Clouds
10:00 AM 73.4 °F - 60.8 °F 65% 30.24 in 6.2 mi South 8.1 mph - N/A   Scattered Clouds
11:00 AM 75.2 °F - 60.8 °F 61% 30.27 in 6.2 mi South 9.2 mph - N/A   Mostly Cloudy
12:00 PM 77.0 °F - 62.6 °F 61% 30.24 in 6.2 mi South 10.4 mph - N/A   Mostly Cloudy
1:00 PM 78.8 °F - 60.8 °F 54% 30.21 in 6.2 mi South 10.4 mph - N/A   Mostly Cloudy
2:00 PM 80 °F - 57 °F 35%  in 19 mi SE 11.5 mph - -   Mostly Cloudy
2:00 PM 80.6 °F 80.8 °F 57.2 °F 45% 30.18 in 6.2 mi SE 11.5 mph - N/A   Scattered Clouds
3:00 PM 80.6 °F 80.3 °F 53.6 °F 39% 30.15 in 6.2 mi SSE 12.7 mph - N/A   Partly Cloudy
4:00 PM 80.6 °F 80.5 °F 55.4 °F 42% 30.12 in 6.2 mi South 11.5 mph - N/A   Partly Cloudy
5:00 PM 78.8 °F - 57.2 °F 47% 30.12 in 6.2 mi SSE 10.4 mph - N/A   Partly Cloudy
6:00 PM 77.0 °F - 55.4 °F 47% 30.15 in 6.2 mi SSE 9.2 mph - N/A   Partly Cloudy
7:00 PM 73.4 °F - 55.4 °F 53% 30.15 in 6.2 mi SSE 8.1 mph - N/A   Scattered Clouds
8:00 PM 70 °F - 56 °F 52%  in 19 mi SSE 5.8 mph - -   Clear
8:00 PM 69.8 °F - 57.2 °F 64% 30.18 in - SSE 5.8 mph - N/A   Clear
9:00 PM 68.0 °F - 57.2 °F 68% 30.18 in - SE 5.8 mph - N/A   Clear
10:00 PM 66.2 °F - 59.0 °F 78% 30.21 in - SE 5.8 mph - N/A   Clear
11:00 PM 66.2 °F - 59.0 °F 78% 30.21 in - SE 5.8 mph - N/A   Clear